Volver al catálogo

COSMOS 1275 DEB

ActivoPO
NORAD 13490·DEBRIS·🇷🇺 Russia

Lanzado Jun 4, 1981 desde Plesetsk Cosmodrome

Loading…

Próximos Pases (próximas 24 horas)

TLE

ActualizadoSource: Space-Track

Época: Sep 14, 2026, 09:59 UTC

1 13490U 81053GL  26257.41600197  .00000258  00000-0  24035-3 0  9996
2 13490  82.8352  39.2681 0065068 200.7308 184.3783 13.77619502221461

Sigue COSMOS 1275 DEB en tiempo real con AllMySat

Download on the App Store